This is the latest recevied weather packets stored in our database for station/object EA3GKP-10. If no packets are shown the sender has not sent any weather packets the latest 10 day(s).
| Time | Temp. | Humidity | Pressure | Rain* | Wind** | Luminosity | Snow |
|---|---|---|---|---|---|---|---|
| 1777639071 | 21.67° C | - | - | 0 mm | 1.79 m/s, 91° | - | - |
| 1777638768 | 20.56° C | - | - | 0 mm | 2.24 m/s, 120° | - | - |
| 1777638465 | 21.11° C | - | - | 0 mm | 0.89 m/s, 163° | - | - |
| 1777638162 | 21.11° C | - | - | 0 mm | 1.79 m/s, 176° | - | - |
| 1777637252 | 22.22° C | - | - | 0 mm | 1.34 m/s, 122° | - | - |
| 1777636950 | 22.22° C | - | - | 0 mm | 1.34 m/s, 194° | - | - |
| 1777636647 | 22.22° C | - | - | 0 mm | 1.34 m/s, 136° | - | - |
| 1777636344 | 21.67° C | - | - | 0 mm | 1.34 m/s, 132° | - | - |
| 1777636041 | 20.56° C | - | - | 0 mm | 2.24 m/s, 191° | - | - |
| 1777635435 | 20.56° C | - | - | 0 mm | 2.68 m/s, 203° | - | - |
| 1777635129 | 21.11° C | - | - | 0 mm | 0.89 m/s, 35° | - | - |
| 1777634826 | 21.11° C | - | - | 0 mm | 2.68 m/s, 76° | - | - |
| 1777634523 | 21.67° C | - | - | 0 mm | 0.45 m/s, 48° | - | - |
| 1777634220 | 22.78° C | - | - | 0 mm | 0.89 m/s, 96° | - | - |
| 1777633614 | 22.22° C | - | - | 0 mm | 1.34 m/s, 110° | - | - |
| 1777633009 | 22.78° C | - | - | 0 mm | 0.89 m/s, 136° | - | - |
| 1777632706 | 22.78° C | - | - | 0 mm | 1.34 m/s, 89° | - | - |
| 1777632405 | 22.22° C | - | - | 0 mm | 0.89 m/s, 170° | - | - |
| 1777631797 | 21.67° C | - | - | 0 mm | 2.24 m/s, 135° | - | - |
| 1777631494 | 22.22° C | - | - | 0 mm | 2.24 m/s, 124° | - | - |
| 1777631191 | 21.11° C | - | - | 0 mm | 2.24 m/s, 135° | - | - |
| 1777630888 | 21.67° C | - | - | 0 mm | 1.34 m/s, 143° | - | - |
| 1777630585 | 22.22° C | - | - | 0 mm | 1.34 m/s, 124° | - | - |
| 1777630283 | 21.11° C | - | - | 0 mm | 0.45 m/s, 165° | - | - |
| 1777629980 | 20.56° C | - | - | 0 mm | 2.24 m/s, 87° | - | - |
* Rain latest hour (hover to see other rain measurements)
** Current wind speed in m/s (hover to see current wind gust speed)